COSMOS 2436 (723)

Last updated on Thu Jul 03 2025 00:03:17 GMT+0000 (Coordinated Universal Time)

1 32395U 07065C 25183.45696677 .00000078 00000+0 00000+0 0 9992 2 32395 64.3254 203.7818 0016664 352.7808 138.6656 2.13100312136270
UTC large
Height (km)
Speed (km/s)
/
Latitude / Longitude
Inclination (degrees)
Orbital Period (minutes)
Azimuth
Elevation
Range (km)
Doppler Factor

Next 0 passes for location: London (51.5072 / 0.1276)

Sorry there are no passes over London.